Wind_Speed
9 9 10 10 11 9 10 10 12 7 9 8 9 12 12 11 13 12 14 19 18 18 22 12 7 7 8 8 10 9 11 11 12 12 12 11 10 9 8 7 6 5 5
12 11 10 6 8 9 9 8 10 6 6 8 10 11 11 14 14 15 13 19 21 23 23 16 13 9 9 10 11 11 12 12 12 12 12 12 11 10 8 7 6 5 4
12 10 10 5 7 9 11 8 7 4 8 9 8 9 10 12 13 13 16 16 20 21 23 24 21 17 13 12 13 13 14 13 13 12 12 12 11 11 10 9 8 6 5
11 10 9 6 7 7 7 8 7 5 6 6 6 6 7 8 9 12 14 14 16 17 23 23 23 23 20 17 16 16 16 15 14 13 13 13 13 12 12 12 11 9 8
12 10 9 8 9 7 8 7 8 4 5 5 2 4 6 6 7 6 10 13 17 16 17 18 21 21 22 22 20 18 18 17 15 15 15 15 14 14 14 14 13 12 11
11 12 10 10 8 8 8 8 7 4 5 4 2 3 3 6 6 8 9 10 11 15 14 19 18 22 23 24 23 22 21 19 18 17 18 17 16 15 16 16 16 16 15
11 12 11 12 10 9 10 10 5 5 3 4 4 4 2 5 5 7 7 8 9 12 14 15 19 16 18 24 24 24 23 22 22 21 20 20 20 19 18 18 18 18 18
11 12 11 12 11 9 10 11 8 5 2 2 3 1 2 3 5 7 8 7 8 10 13 14 15 19 17 16 22 24 25 26 25 24 25 23 22 22 22 22 21 20 21
10 10 10 12 12 10 9 11 12 8 3 4 2 2 3 2 4 6 8 6 9 9 9 12 15 16 19 19 19 20 26 27 28 27 26 26 25 24 24 24 24 24 24
6 7 10 11 15 9 11 10 11 9 8 6 4 4 5 3 1 2 7 11 11 9 9 9 12 15 17 18 20 21 22 23 27 30 30 30 29 28 28 28 28 27 27
5 9 10 10 12 11 11 11 11 12 8 8 6 5 2 4 5 5 3 7 10 10 10 12 10 11 14 16 16 18 17 19 20 23 26 27 28 29 30 30 30 32 32
6 10 11 11 10 12 14 11 11 10 10 10 9 5 6 3 2 3 3 6 7 7 11 12 13 13 13 14 15 17 15 15 16 18 19 21 23 26 29 31 32 32 33
5 6 10 11 12 12 12 13 13 12 12 11 10 9 6 6 5 3 3 3 6 5 7 9 10 13 14 15 15 19 19 19 19 19 20 21 22 22 23 26 29 30 31
3 4 8 10 11 12 12 12 12 12 13 12 12 12 11 8 7 5 4 4 5 5 5 7 9 10 12 13 14 20 20 21 21 22 23 24 25 25 24 23 23 24 26
4 4 6 8 9 10 12 13 12 13 15 14 13 13 13 11 8 8 8 8 7 6 5 7 7 8 8 8 9 10 14 16 16 19 23 26 27 26 26 27 28 29 28
4 4 6 8 8 9 10 12 12 14 15 14 13 14 14 14 12 11 11 10 10 9 8 6 10 7 9 9 11 11 11 15 16 16 16 16 17 20 23 26 30 35 33
2 4 5 7 8 8 9 9 11 12 13 14 14 16 16 16 14 14 13 13 12 11 11 10 10 13 14 12 11 13 13 14 15 18 19 19 19 21 23 25 27 31 35
1 2 3 4 6 8 8 9 9 10 11 12 12 14 14 14 16 17 16 16 16 14 15 15 14 13 15 14 16 17 16 17 19 20 26 26 26 27 27 25 25 24 27
2 2 2 2 2 3 4 5 6 7 9 10 12 13 13 14 16 16 18 18 17 18 19 17 17 17 16 16 16 18 18 18 19 21 25 23 24 27 28 27 24 23 24
2 1 1 1 2 3 4 4 2 4 3 4 6 7 10 12 14 14 14 14 15 16 15 17 18 17 17 18 20 20 19 18 19 17 18 22 25 26 25 27 28 27 27
3 3 2 2 2 1 5 6 5 5 6 6 6 5 7 9 9 11 10 10 10 10 11 14 14 14 15 15 16 16 17 16 16 15 16 16 19 20 21 21 24 28 31
1 1 2 2 2 4 5 7 8 5 6 7 7 8 8 13 13 15 17 17 18 16 13 15 17 18 17 17 16 17 18 18 20 16 20 20 18 20 21 21 23 24 30
2 3 3 3 3 7 6 7 5 3 4 6 6 7 7 9 11 9 13 16 19 20 21 20 18 17 18 17 17 18 18 19 20 18 19 23 20 23 22 23 25 24 25
2 3 4 4 3 4 5 6 5 3 4 5 5 5 6 10 17 14 13 10 11 12 12 12 12 13 13 16 16 15 18 21 22 20 18 23 20 21 20 20 23 25 26
3 2 2 2 2 1 2 3 4 3 5 5 5 6 8 11 15 13 14 13 12 11 12 17 19 20 21 20 20 21 19 20 23 22 19 21 23 23 22 23 21 24 25
5 4 3 2 2 3 3 4 6 4 6 5 6 7 12 14 15 15 14 14 12 10 11 12 15 15 16 17 16 17 16 19 20 22 17 17 19 20 23 20 20 16 16
Wind_Direction
240 237 242 264 262 254 228 246 247 254 237 236 227 223 216 218 224 206 198 199 195 197 202 194 183 181 194 195 189 187 182 184 183 181 180 178 182 176 178 174 176 171 163
235 237 256 252 255 228 228 246 264 247 239 256 254 244 241 221 225 211 210 210 213 207 205 210 214 217 210 206 200 199 195 196 195 193 194 193 194 195 193 196 202 199 199
248 258 270 257 243 230 228 250 256 251 245 273 255 243 241 232 230 219 213 205 216 213 222 226 227 227 226 219 214 208 206 205 204 206 205 208 205 210 210 215 222 225 226
260 263 271 246 243 230 240 243 253 253 286 285 261 234 247 245 228 221 213 199 211 214 220 223 224 229 229 228 221 217 215 214 217 218 220 219 222 223 223 226 234 237 240
253 257 251 238 232 226 234 230 251 250 270 272 265 240 221 238 220 213 205 205 202 211 206 229 227 226 227 225 224 223 222 223 223 227 228 228 228 233 235 237 238 243 246
247 249 246 226 225 227 227 223 230 243 261 300 270 232 233 223 218 211 200 208 208 211 206 216 222 223 226 226 223 226 227 226 230 231 231 234 239 243 243 245 247 250 250
243 247 242 239 221 219 215 225 223 205 206 252 253 283 221 221 226 208 202 213 196 206 207 215 213 215 237 229 223 224 229 231 232 232 236 238 239 243 247 251 253 255 258
251 248 237 236 221 216 219 217 220 213 197 250 274 243 203 219 199 212 221 215 195 203 200 210 218 209 211 236 238 230 235 236 235 239 238 239 243 246 248 251 256 260 263
268 244 236 231 221 208 229 220 221 222 219 223 214 220 188 237 196 217 221 202 210 200 201 211 212 217 218 218 225 246 237 236 237 240 244 244 243 245 249 252 254 257 261
251 250 230 233 228 218 214 220 214 210 221 255 240 230 215 246 278 254 226 213 220 215 209 216 218 219 226 227 230 227 237 241 240 241 244 248 250 253 256 257 257 256 256
263 235 235 237 228 209 218 202 212 217 229 234 230 213 217 234 256 248 245 224 219 227 226 220 219 223 226 226 231 242 241 246 244 247 250 253 256 258 258 258 259 261 261
247 240 234 231 229 223 206 211 212 218 213 223 236 226 226 221 209 246 229 229 223 221 224 223 219 226 226 232 231 229 247 240 242 243 249 254 256 257 260 261 262 262 261
234 240 234 236 230 221 222 215 225 216 226 226 235 238 218 219 226 241 220 208 205 214 217 227 228 222 232 237 241 253 251 247 248 249 252 257 259 260 260 260 259 259 259
240 241 232 227 229 228 221 221 219 222 228 230 230 230 239 215 226 223 235 233 217 225 223 208 224 226 233 238 242 251 248 250 249 253 256 259 259 259 260 260 259 258 259
256 234 238 231 231 229 226 223 214 225 216 230 232 232 232 231 214 233 236 240 251 236 226 211 224 215 221 237 247 257 253 252 253 255 259 260 258 259 261 262 262 261 261
223 240 238 234 230 233 230 228 217 228 222 225 231 231 227 234 223 236 236 240 245 249 264 222 216 222 230 237 260 268 260 260 256 258 259 263 263 262 263 265 266 261 258
280 267 247 247 234 235 231 230 224 218 226 225 222 233 233 222 229 239 245 237 240 244 247 250 247 246 250 256 253 264 264 261 259 261 258 262 265 267 269 269 278 271 252
255 270 270 254 249 242 246 242 241 233 236 235 235 226 232 231 230 230 230 238 236 239 245 248 247 246 269 263 260 262 263 259 261 264 271 264 267 271 273 276 278 277 246
121 142 165 210 234 240 248 260 264 261 260 257 248 246 244 241 241 237 241 243 247 247 248 250 252 254 258 261 261 269 269 269 266 265 273 284 277 270 270 268 272 268 257
173 160 179 169 229 246 260 253 260 278 300 295 276 259 256 256 254 255 257 258 258 258 259 260 264 266 267 268 273 273 271 263 259 263 263 266 270 278 275 268 266 264 261
199 212 190 219 245 289 247 251 285 293 293 292 296 296 293 267 271 268 264 262 263 269 269 269 271 278 279 280 288 297 292 293 294 289 281 274 271 275 281 280 281 273 265
253 197 134 153 153 227 265 260 263 292 292 289 281 279 274 286 267 264 262 263 264 269 268 267 272 274 274 278 280 278 278 278 279 271 278 276 269 270 271 267 264 263 266
270 270 257 224 233 260 274 272 270 283 286 280 291 286 288 271 279 276 285 275 274 271 266 264 264 267 273 275 276 278 279 275 274 274 276 277 274 274 273 273 276 277 270
275 286 279 253 239 260 259 266 275 297 300 301 298 298 296 275 267 268 270 282 275 272 282 279 276 273 265 262 262 275 281 286 287 287 279 278 287 282 280 276 276 276 283
245 234 232 224 236 278 284 304 305 311 277 292 290 289 271 263 279 295 291 287 285 286 287 290 285 271 272 273 273 278 281 283 284 283 279 277 281 282 279 275 275 280 280
208 199 186 208 224 278 290 304 306 305 298 294 294 292 295 277 283 290 292 285 284 283 272 263 279 298 301 301 296 291 286 277 279 285 287 288 282 284 287 285 284 275 274
Height
1575 1575 1574 1573 1573 1573 1576 1576 1576 1575 1575 1577 1578 1580 1580 1582 1580 1585 1585 1588 1590 1592 1594 1596 1598 1599 1601 1603 1605 1607 1609 1611 1613 1614 1615 1617 1618 1619 1620 1621 1622 1622 1622
1571 1571 1571 1571 1572 1573 1574 1575 1573 1574 1576 1574 1576 1577 1577 1578 1577 1580 1583 1585 1586 1590 1593 1595 1597 1599 1601 1603 1605 1607 1609 1611 1613 1614 1615 1617 1618 1619 1620 1621 1622 1622 1622
1568 1568 1569 1569 1571 1570 1570 1572 1572 1573 1571 1575 1574 1574 1574 1575 1576 1577 1579 1583 1584 1588 1590 1593 1596 1598 1600 1603 1605 1607 1609 1610 1613 1614 1615 1617 1618 1619 1620 1621 1621 1622 1622
1566 1565 1567 1568 1570 1569 1570 1571 1570 1571 1571 1571 1572 1572 1573 1573 1573 1574 1576 1579 1582 1585 1587 1589 1593 1596 1599 1601 1603 1605 1608 1610 1611 1613 1614 1616 1617 1618 1619 1620 1621 1621 1622
1564 1564 1564 1566 1567 1568 1568 1569 1568 1569 1570 1569 1570 1570 1572 1572 1572 1573 1575 1577 1580 1582 1586 1587 1590 1593 1596 1598 1601 1603 1605 1608 1610 1611 1613 1614 1616 1617 1618 1619 1619 1620 1620
1562 1562 1562 1563 1565 1566 1567 1568 1567 1568 1569 1569 1571 1570 1570 1571 1571 1571 1573 1575 1576 1579 1582 1585 1587 1589 1592 1594 1597 1600 1602 1605 1607 1609 1611 1612 1614 1615 1616 1617 1618 1618 1618
1559 1559 1559 1560 1561 1564 1565 1566 1566 1566 1570 1570 1570 1569 1569 1570 1569 1570 1572 1573 1575 1577 1580 1582 1583 1588 1590 1591 1593 1596 1599 1602 1604 1606 1608 1609 1611 1612 1613 1614 1615 1615 1616
1555 1555 1556 1557 1559 1562 1562 1563 1565 1565 1569 1569 1568 1569 1569 1570 1569 1570 1570 1572 1574 1575 1578 1581 1582 1585 1588 1589 1591 1593 1595 1598 1600 1602 1604 1606 1607 1608 1609 1610 1611 1612 1613
1553 1553 1553 1555 1556 1558 1561 1561 1563 1566 1567 1568 1567 1569 1569 1569 1568 1569 1569 1573 1573 1574 1577 1579 1581 1583 1585 1588 1589 1589 1590 1592 1595 1597 1599 1601 1602 1604 1605 1606 1606 1607 1609
1549 1550 1550 1552 1554 1556 1559 1559 1561 1563 1565 1566 1566 1567 1567 1568 1568 1569 1569 1570 1573 1573 1576 1578 1579 1580 1582 1583 1584 1586 1587 1587 1590 1592 1594 1596 1597 1598 1600 1601 1601 1602 1603
1547 1548 1549 1550 1552 1553 1555 1557 1559 1559 1564 1565 1565 1565 1565 1567 1568 1567 1567 1568 1571 1573 1574 1575 1577 1579 1579 1580 1582 1582 1582 1583 1585 1587 1589 1591 1592 1593 1593 1594 1595 1596 1597
1546 1546 1546 1547 1549 1551 1553 1555 1556 1558 1560 1564 1565 1564 1565 1566 1566 1567 1566 1567 1569 1569 1571 1572 1574 1576 1577 1577 1577 1578 1578 1580 1581 1582 1583 1585 1586 1586 1587 1587 1588 1589 1590
1544 1543 1544 1545 1547 1548 1550 1552 1553 1556 1557 1560 1562 1563 1564 1565 1566 1566 1566 1566 1566 1568 1569 1570 1571 1573 1574 1575 1576 1575 1574 1576 1577 1578 1579 1579 1580 1580 1581 1581 1581 1582 1583
1542 1542 1543 1544 1544 1546 1547 1550 1552 1553 1556 1557 1559 1560 1561 1563 1564 1565 1566 1566 1566 1566 1567 1568 1569 1570 1571 1571 1572 1570 1571 1570 1572 1573 1573 1574 1574 1575 1575 1575 1575 1575 1576
1542 1542 1542 1542 1543 1544 1546 1547 1549 1551 1553 1554 1557 1557 1559 1559 1562 1563 1564 1565 1565 1565 1564 1566 1566 1567 1568 1569 1568 1567 1566 1566 1567 1568 1568 1568 1568 1568 1568 1569 1569 1570 1570
1541 1540 1541 1542 1543 1543 1544 1545 1546 1548 1549 1552 1554 1555 1555 1558 1559 1560 1561 1562 1562 1563 1561 1562 1563 1564 1565 1565 1565 1563 1563 1562 1563 1563 1563 1563 1562 1562 1562 1562 1562 1562 1563
1539 1539 1540 1540 1540 1542 1543 1544 1544 1546 1547 1549 1550 1551 1551 1554 1556 1557 1558 1558 1559 1560 1560 1560 1560 1561 1560 1560 1561 1561 1560 1559 1560 1558 1558 1558 1558 1557 1557 1556 1555 1553 1553
1540 1540 1540 1540 1540 1542 1543 1543 1543 1544 1546 1547 1546 1547 1549 1549 1550 1551 1552 1553 1555 1556 1556 1556 1557 1557 1557 1557 1556 1555 1555 1556 1557 1556 1553 1552 1551 1550 1550 1549 1547 1545 1545
1540 1541 1540 1540 1541 1541 1542 1542 1542 1542 1543 1544 1543 1544 1545 1545 1546 1547 1547 1548 1548 1549 1550 1551 1552 1552 1553 1553 1552 1551 1550 1550 1549 1550 1547 1545 1544 1543 1542 1542 1541 1541 1541
1539 1539 1539 1539 1541 1541 1542 1541 1542 1542 1542 1543 1542 1542 1542 1542 1542 1543 1544 1544 1545 1545 1546 1546 1547 1547 1546 1546 1545 1545 1544 1544 1542 1543 1542 1541 1539 1537 1535 1535 1535 1534 1534
1536 1536 1537 1538 1539 1540 1539 1538 1540 1541 1541 1542 1542 1541 1541 1540 1541 1541 1541 1541 1541 1542 1542 1542 1542 1542 1542 1542 1540 1539 1538 1538 1537 1537 1535 1534 1533 1532 1530 1529 1528 1527 1527
1534 1534 1535 1535 1537 1538 1535 1536 1537 1538 1538 1538 1539 1540 1539 1538 1538 1538 1538 1538 1538 1538 1539 1540 1540 1539 1538 1538 1537 1536 1534 1534 1532 1533 1531 1529 1529 1527 1526 1525 1524 1521 1520
1532 1533 1533 1533 1533 1532 1532 1533 1534 1537 1537 1537 1537 1537 1537 1538 1535 1535 1534 1534 1533 1533 1532 1532 1532 1533 1534 1533 1532 1531 1530 1529 1526 1526 1525 1522 1523 1520 1519 1518 1516 1514 1513
1529 1529 1530 1530 1529 1529 1529 1530 1531 1532 1534 1533 1532 1532 1532 1531 1527 1529 1529 1530 1530 1530 1529 1529 1529 1528 1528 1526 1526 1526 1525 1523 1521 1520 1519 1516 1516 1513 1512 1511 1509 1507 1506
1527 1526 1527 1527 1528 1527 1527 1528 1529 1529 1531 1530 1529 1528 1527 1526 1525 1525 1525 1526 1525 1526 1528 1524 1522 1520 1521 1521 1520 1519 1519 1519 1516 1516 1515 1511 1510 1507 1506 1504 1503 1501 1498
1525 1523 1524 1525 1525 1526 1525 1525 1526 1527 1527 1528 1526 1526 1522 1522 1521 1520 1520 1519 1520 1520 1519 1517 1517 1517 1517 1514 1514 1514 1513 1513 1511 1510 1511 1507 1505 1503 1499 1497 1497 1495 1493